www.pogodaiklimat.ru

Погода и климат >> Архив погоды >> Узбекистан >> Денау


ПОГОДА в Денау

  • Прогноз погоды в Денау
  • Монитор погоды в Денау

АРХИВ ПОГОДЫ в Денау

Время (UTC), дата Ветер
(напр.,м/с)
 
Видим.   Явления Облачность Т
(С)
Тd
(С)
f
(%)
Тe
(С)
Тes
(С)
Комфортность P
(гПа)
Po
(гПа)
Тmin
(С)
Tmax
(С)
R
(мм)
R24
(мм)
S
(см)
03 15.08 В 1 50 км ясно +20.6 +11.0 54 +24 +29 комфорт 1013.4 954.3
06 15.08 В 1 50 км ясно +28.0 +9.3 31 +28 +47 жарко 1012.8 955.3 +18.2
09 15.08 н/о +10.0 1010.5 953.9
12 15.08 СВ 1 50 км ясно +30.8 +13.0 34 +32 +37 жарко 1008.2 951.3
18 15.08 штиль 0 н/о ясно +20.2 +15.3 73 +22 +22 комфорт 1010.3 951.4 +30.8
21 15.08 З 1 н/о ясно +19.0 +11.3 61 +21 +21 комфорт 1010.2 951.0
00 16.08 СВ 1 н/о ясно +17.2 +9.2 59 +18 +18 1010.2 950.7
03 16.08 С 1 50 км ясно +20.2 +10.0 52 +23 +28 комфорт 1010.6 951.6
06 16.08 ЮЗ 1 50 км 3/0
[Ci fib]
+26.2 +7.4 30 +26 +43 жарко 1009.0 951.5 +17.2
09 16.08 ЮЗ 2 50 км 3/0
[Ci fib]
+29.2 +8.2 27 +29 +43 жарко 1007.9 950.7
12 16.08 ЮЗ 1 50 км 3/0
[Ci fib]
+29.8 +8.1 26 +29 +33 жарко 1006.1 949.1
15 16.08 штиль 0 50 км ясно +24.4 +14.5 54 +27 +27 жарко 1007.4 949.3 +29.8
18 16.08 СВ 1 н/о ясно +21.4 +12.4 56 +24 +24 комфорт 1009.1 950.4 +29.8
21 16.08 В 1 н/о ясно +19.6 +11.4 59 +22 +22 комфорт 1010.1 960.9
00 17.08 В 1 н/о ясно +17.4 +7.7 53 +18 +18 1010.4 950.9
03 17.08 В 1 50 км ясно +19.6 +9.2 51 +22 +27 комфорт 1011.0 951.7
06 17.08 В 1 50 км ясно +27.8 +10.5 34 +28 +47 жарко 1008.6 951.1 +17.4
09 17.08 Ю 2 50 км ясно +30.6 +6.1 21 +29 +45 жарко 1006.4 949.5
12 17.08 Ю 2 50 км ясно +31.0 +5.5 20 +29 +33 жарко 1005.6 948.8
15 17.08 штиль 0 50 км ясно +25.0 +14.4 52 +28 +28 жарко 1004.7 947.7 +31.0
18 17.08 штиль 0 н/о ясно +19.4 +12.4 64 +21 +21 комфорт 1007.3 948.5 +31.0
21 17.08 С 1 н/о ясно +19.0 +10.3 57 +21 +21 комфорт 1008.0 948.9
00 18.08 СВ 1 н/о ясно +18.6 +7.4 48 +20 +20 1008.3 949.1
03 18.08 С 1 50 км ясно +20.0 +9.8 52 +22 +27 комфорт 1009.2 950.3
06 18.08 ЮВ 1 50 км 3/0
[Ci fib]
+29.0 +10.4 31 +29 +46 жарко 1008.5 951.3 +18.6
09 18.08 ЮВ 1 50 км 3/0
[Ac trans]
+31.6 +7.6 22 +30 +45 жарко 1008.1 951.2
12 18.08 З 2 50 км 3/0
[Ci fib]
+31.2 +10.5 28 +31 +35 жарко 1007.2 950.4
15 18.08 В 1 н/о 3/0 1500 м
[Ci fib]
+26.0 +15.3 52 +29 +29 душно 1007.7 950.0 +31.6
18 18.08 В 1 н/о 3/0 1500 м
[Ci fib]
+22.0 +13.5 59 +25 +25 комфорт 1010.0 951.4 +31.6
21 18.08 Ю 2 н/о 3/0 1500 м
[Ci fib]
+20.8 +10.5 52 +23 +23 комфорт 1010.5 951.6
00 19.08 Ю 2 н/о 3/0 1500 м
[Ci fib]
+18.4 +9.5 56 +19 +19 1011.2 951.8
03 19.08 З 2 50 км ясно +22.0 +10.0 46 +24 +28 комфорт 1011.1 952.4
06 19.08 штиль 0 10 км ясно +30.4 +12.0 32 +31 +52 опасность
солнечного
удара
1009.8 952.5 +18.4
09 19.08 Ю 1 10 км ясно +33.0 +7.3 20 +31 +49 жарко 1010.2 951.7
12 19.08 Ю 1 10 км ясно +32.4 +9.0 24 +31 +36 жарко 1009.9 950.9
15 19.08 Ю 1 50 км ясно +26.2 +16.4 55 +30 +30 душно 1009.7 951.9 +33.0
18 19.08 штиль 0 н/о ясно +20.8 +12.5 59 +23 +23 комфорт 1011.5 952.6 +33.0
21 19.08 СЗ 1 н/о ясно +21.2 +10.9 52 +23 +23 комфорт 1011.0 952.2
00 20.08 СЗ 1 н/о ясно +19.8 +10.9 56 +22 +22 комфорт 1011.9 952.8
03 20.08 СВ 1 50 км ясно +20.4 +11.3 56 +23 +28 комфорт 1012.6 953.5
06 20.08 С 1 50 км ясно +30.2 +10.7 30 +30 +48 жарко 1010.5 953.4 +19.8
09 20.08 Ю 2 50 км ясно +33.0 +10.2 25 +32 +48 жарко 1008.7 952.2
12 20.08 Ю 1 50 км ясно +33.8 +11.2 25 +33 +38 жарко 1007.1 950.7
15 20.08 штиль 0 50 км ясно +27.0 +15.8 50 +30 +30 душно 1008.4 950.8 +33.8
18 20.08 СВ 1 н/о ясно +21.0 +11.1 53 +24 +24 комфорт 1010.2 951.3 +33.8
21 20.08 СВ 1 н/о ясно +20.4 +10.7 54 +23 +23 комфорт 1009.9 950.9
00 21.08 СВ 1 н/о ясно +18.6 +9.3 55 +20 +20 1010.6 951.3
03 21.08 В 1 50 км ясно +22.6 +10.6 47 +25 +29 комфорт 1010.6 951.9
06 21.08 В 1 50 км ясно +30.4 +8.6 26 +30 +48 жарко 1008.6 951.6 +18.6
12 21.08 Ю 2 50 км ясно +33.6 +10.9 25 +33 +37 жарко 1004.9 948.7

 

Местоположение метеостанции Денау (Сухрандарьинская область, Узбекистан): широта 38.27 долгота 67.90 высота над уровнем моря 520 м.

В архиве по умолчанию представлена погода в Денау за последнюю неделю. Архивные данные за месяц целиком и за предыдущие месяцы, начиная с января 2011 года, Вы можете получить, выбрав интересующий диапазон дат из раскрывающегося списка и нажав кнопку "Ввод!".


*Определитесь, кто Вы:
робот инопланетянин человек

Внимание! Время в таблицах - всемирное. Для получения местного времени необходимо прибавить поправку, которая равна 5 ч.

Смотрите также архив погоды в соседних городах и на ближайших метеорологических станциях:

Погода в Шурчи (Сухрандарьинская область, Узбекистан) (31 км)
Погода в Байсуне (Сухрандарьинская область, Узбекистан) (62 км)
Погода в Ганжине (Таджикистан) (69 км)
Погода в Исанбай (Таджикистан) (74 км)
Погода в Душанбе (Таджикистан) (83 км)
Погода в Курган-Тюбе (Таджикистан) (92 км)
Погода в Акрабате (Узбекистан) (93 км)
Погода в Минчукуре (Кашкадарьинская область, Узбекистан) (94 км)
Погода в Искандекуле (Таджикистан) (101 км)
Погода в Ширабаде (Сухрандарьинская область, Узбекистан) (102 км)

Пояснения к столбцам:

Ветер - указаны скорость ветра в м/с - средняя за 10 мин, порывы в срок и между сроками (в фигурных скобках) и направление, откуда дует ветер: С - северный, СВ - северо-восточный, В - восточный, ЮВ - юго-восточный, Ю - южный, ЮЗ - юго-западный, З - западный, СЗ - северо-западный.
Видимость - горизонтальная дальность видимости в метрах или километрах. При видимости от 1 до 10 км при отсутствии осадков обычно наблюдается дымка, при ухудшении видимости до 1 км и менее - туман. В сухую погоду видимость может ухудшаться дымом, пылью или мглою.
Явления - указаны атмосферные явления, наблюдавшиеся в срок или в последний час перед сроком; фигурными скобками обозначены явления, наблюдавшиеся между сроками (за 1-3 часа до срока); квадратными скобками обозначены град или гололедные отложения с указанием их диаметра в мм.
Облачность - указаны через наклонную черту общая и нижняя облачность в баллах и высота нижней границы облаков в метрах; квадратными скобками обозначены формы облаков: Ci - перистые, Cs - перисто-слоистые, Cc - перисто-кучевые, Ac - высококучевые, As - высокослоистые, Sc - слоисто-кучевые, Ns - слоисто-дождевые, Cu - кучевые, Cb - кучево-дождевые. Подробнее классификацию облаков см. в Атласе облаков (PDF).
T - Температура воздуха - температура, измеренная на высоте 2 м над землей.
Td - Температура точки росы - температура, при понижении до которой содержащийся в воздухе водяной пар достигнет насыщения.
f - Относительная влажность воздуха - влажноcть воздуха, измеренная на высоте 2 м над землей.
Te - Эффективная температура - температура, которую ощущает одетый по сезону человек в тени. Характеристика душности погоды. При расчете учитывается влияние влажности воздуха и скорости ветра на теплоощущения человека.
Tes - Эффективная температура на солнце - температура, которую ощущает человек, с поправкой на солнечный нагрев. Характеристика знойности погоды. Зависит от высоты солнца над горизонтом, облачности и скорости ветра. Ночью, в пасмурную погоду, а также при ветре 12 м/с и более поправка равна нулю.
P - Атмосферное давление - приведенное к уровню моря атмосферное давление.
Po - Атмосферное давление - измеренное на уровне метеостанции атмосферное давление.
Tmin - Минимальная температура - минимум температуры воздуха на высоте 2 м над землей.
Tmax - Максимальная температура - максимум температуры воздуха на высоте 2 м над землей.
R - Количество осадков - Количество выпавших осадков за период времени, мм. При наведении курсора мыши на число - период времени, за который выпало указанное количество осадков.
R24 - Количество осадков - Количество выпавших осадков за 24 часа, мм.
S - Снежный покров - Высота снежного покрова, см. При наведении курсора мыши на число - состояние снежного покрова и степень покрытия местности в баллах.